Date,TemperatureHighF,TemperatureAvgF,TemperatureLowF,DewpointHighF,DewpointAvgF,DewpointLowF,HumidityHigh,HumidityAvg,HumidityLow,PressureMaxIn,PressureMinIn,WindSpeedMaxMPH,WindSpeedAvgMPH,GustSpeedMaxMPH,PrecipitationSumIn
2013-2-1,44.3,31.9,36.3,41.0,5.4,-99.9,91,63,71,29.58,29.12,22,-218,32,0.03
2013-2-2,43.2,26.8,34.7,36.0,-10.5,-99.9,91,51,63,29.96,29.59,12,-323,17,0.00
2013-2-3,50.5,38.4,40.5,48.0,17.9,-99.9,97,75,84,29.84,29.52,20,-180,30,0.02
2013-2-4,49.5,27.5,43.0,48.0,-15.6,-99.9,95,49,72,29.62,29.52,22,-388,36,0.00
2013-2-6,43.2,37.8,34.3,35.0,27.7,-99.9,88,74,66,29.97,29.79,22,-28,26,0.00
2013-2-7,44.1,21.9,34.7,42.0,-22.6,-99.9,94,51,85,29.97,29.61,20,-426,31,0.09
2013-2-8,46.0,18.0,40.5,43.0,-42.1,-99.9,90,37,87,29.98,29.89,12,-587,14,0.00
2013-2-9,49.2,28.0,43.9,45.0,-13.6,-99.9,94,53,83,29.90,29.38,9,-394,17,0.01
2013-2-10,44.1,16.8,40.9,43.0,-44.1,-99.9,97,38,93,29.38,28.91,11,-601,20,0.42
2013-2-11,65.5,13.4,38.4,57.0,-59.5,-99.9,92,23,47,29.51,28.95,9,-711,9,0.00
2013-2-12,45.2,24.1,40.0,44.0,-18.8,-99.9,96,52,85,29.68,29.51,13,-408,19,0.00
2013-2-13,53.5,21.5,47.8,50.0,-37.9,-99.9,93,38,87,29.66,29.35,24,-578,27,0.01
2013-2-14,49.0,28.8,42.3,43.0,-10.3,-99.9,91,53,73,29.73,29.38,17,-357,27,0.00
2013-2-15,48.3,38.2,40.7,42.0,20.2,-99.9,93,71,71,29.82,29.74,13,-133,17,0.00
2013-2-16,53.7,38.8,42.7,48.0,15.7,-99.9,93,67,75,29.79,29.72,23,-184,30,0.00
2013-2-17,47.5,35.7,41.8,42.0,10.1,-99.9,86,63,75,29.73,29.64,17,-200,28,0.00
2013-2-18,47.4,34.5,39.6,38.0,8.5,-99.9,84,60,62,29.77,29.66,12,-198,19,0.00
2013-2-19,51.8,36.2,33.6,42.0,19.5,-99.9,91,71,61,29.78,29.71,11,-114,18,0.00
2013-2-20,71.8,36.0,34.6,62.0,17.1,-99.9,96,68,34,29.84,29.74,18,-130,24,0.00
2013-2-21,38.6,29.1,34.6,33.0,4.2,-99.9,80,61,70,29.87,29.82,19,-184,26,0.00
2013-2-22,35.0,20.1,33.1,27.0,-26.5,-99.9,73,41,67,29.93,29.84,13,-410,20,0.00
2013-2-23,35.2,12.3,32.7,32.0,-53.4,-99.9,91,30,77,30.02,29.92,9,-640,11,0.00
2013-2-24,40.7,23.2,31.6,33.0,-15.6,-99.9,87,53,73,30.16,30.02,4,-357,6,0.00
2013-2-25,57.0,32.8,32.4,50.0,13.3,-99.9,95,69,69,30.26,30.14,11,-146,12,0.00
2013-2-26,41.3,34.2,37.1,38.0,16.8,-99.9,92,75,80,30.34,30.22,16,-142,17,0.00
2013-2-27,54.2,25.6,37.9,52.0,-14.2,-99.9,92,54,74,30.35,30.29,10,-370,14,0.00
2013-2-28,59.9,22.3,38.0,54.0,-28.4,-99.9,95,44,67,30.30,30.18,7,-488,10,0.00